• Em Portugal
  • Lista de países
  • Para 7 dias
  • Temperatura da água
  • Mapas de satélite
  • Mapa do tempo
  • Widgets de tempo
  • user-avatar
    Iniciar Sessão

    Previsão horária em Rarwino

    Hoje, 20 Junho, Quarta-feira

    Tempo Temperatura Precipitação Vento Pressão Humidade
    00:00 +14°C° 0 mm 4 m/s 765 mmHg 85%
    01:00 +14°C° 0 mm 4 m/s 765 mmHg 86%
    02:00 +13°C° 0 mm 4 m/s 765 mmHg 87%
    03:00 +13°C° 0 mm 4 m/s 765 mmHg 87%
    04:00 +12°C° 0 mm 4 m/s 765 mmHg 87%
    05:00 +13°C° 0 mm 4 m/s 765 mmHg 82%
    06:00 +15°C° 0 mm 4 m/s 765 mmHg 77%
    07:00 +17°C° 0 mm 3 m/s 765 mmHg 71%
    08:00 +18°C° 0 mm 3 m/s 765 mmHg 66%
    09:00 +20°C° 0 mm 4 m/s 765 mmHg 61%
    10:00 +21°C° 0 mm 4 m/s 765 mmHg 56%
    11:00 +22°C° 0 mm 4 m/s 765 mmHg 57%
    12:00 +23°C° 0 mm 4 m/s 764 mmHg 57%
    13:00 +25°C° 0 mm 4 m/s 764 mmHg 58%
    14:00 +25°C° 0 mm 4 m/s 763 mmHg 60%
    15:00 +25°C° 0 mm 4 m/s 763 mmHg 63%
    16:00 +25°C° 0 mm 5 m/s 762 mmHg 65%
    17:00 +23°C° 0 mm 4 m/s 762 mmHg 68%
    18:00 +23°C° 0 mm 4 m/s 761 mmHg 71%
    19:00 +24°C° 0 mm 3 m/s 761 mmHg 73%
    20:00 +22°C° 0 mm 3 m/s 761 mmHg 77%
    21:00 +20°C° 0 mm 4 m/s 761 mmHg 81%
    22:00 +19°C° 0 mm 4 m/s 760 mmHg 85%
    23:00 +19°C° 0 mm 4 m/s 760 mmHg 86%

    Amanhã, 21 Junho, Quinta-feira

    Tempo Temperatura Precipitação Vento Pressão Humidade
    00:00 +19°C° 0 mm 4 m/s 760 mmHg 88%
    01:00 +18°C° 0 mm 4 m/s 759 mmHg 89%
    02:00 +18°C° 0 mm 4 m/s 759 mmHg 91%
    03:00 +18°C° 0 mm 4 m/s 758 mmHg 92%
    04:00 +17°C° 0 mm 4 m/s 757 mmHg 94%
    05:00 +19°C° 0 mm 5 m/s 757 mmHg 89%
    06:00 +20°C° 0 mm 5 m/s 756 mmHg 84%
    07:00 +21°C° 0 mm 6 m/s 756 mmHg 79%
    08:00 +22°C° 0,2 mm 7 m/s 755 mmHg 75%
    09:00 +23°C° 0,2 mm 7 m/s 755 mmHg 70%
    10:00 +23°C° 0,2 mm 8 m/s 754 mmHg 65%
    11:00 +21°C° 0,8 mm 8 m/s 754 mmHg 71%
    12:00 +18°C° 0,8 mm 7 m/s 754 mmHg 78%
    13:00 +16°C° 0,8 mm 7 m/s 754 mmHg 85%
    14:00 +15°C° 1,1 mm 6 m/s 754 mmHg 86%
    15:00 +14°C° 1,1 mm 6 m/s 754 mmHg 86%
    16:00 +14°C° 1,1 mm 6 m/s 754 mmHg 87%
    17:00 +12°C° 0,8 mm 7 m/s 755 mmHg 86%
    18:00 +12°C° 0,8 mm 8 m/s 755 mmHg 84%
    19:00 +11°C° 0,8 mm 10 m/s 755 mmHg 82%
    20:00 +11°C° 0,2 mm 9 m/s 756 mmHg 82%
    21:00 +10°C° 0,2 mm 9 m/s 756 mmHg 81%
    22:00 +10°C° 0,2 mm 9 m/s 756 mmHg 80%
    23:00 +10°C° 0,1 mm 9 m/s 756 mmHg 79%

    Depois de amanhã, 22 Junho, Sexta-feira

    Tempo Temperatura Precipitação Vento Pressão Humidade
    00:00 +10°C° 0,1 mm 9 m/s 756 mmHg 78%
    01:00 +8°C° 0,1 mm 9 m/s 756 mmHg 76%
    02:00 +8°C° 0,1 mm 10 m/s 756 mmHg 77%
    03:00 +8°C° 0,1 mm 10 m/s 756 mmHg 77%
    04:00 +8°C° 0,1 mm 10 m/s 756 mmHg 78%
    05:00 +9°C° 0,2 mm 10 m/s 756 mmHg 77%
    06:00 +9°C° 0,2 mm 10 m/s 756 mmHg 75%
    07:00 +11°C° 0,2 mm 9 m/s 756 mmHg 74%
    08:00 +11°C° 0,4 mm 9 m/s 757 mmHg 75%
    09:00 +12°C° 0,4 mm 8 m/s 757 mmHg 75%
    10:00 +12°C° 0,4 mm 8 m/s 757 mmHg 75%
    11:00 +13°C° 0,4 mm 8 m/s 757 mmHg 73%
    12:00 +15°C° 0,4 mm 8 m/s 757 mmHg 70%
    13:00 +16°C° 0,4 mm 7 m/s 757 mmHg 68%
    14:00 +16°C° 0,2 mm 8 m/s 758 mmHg 66%
    15:00 +17°C° 0,2 mm 8 m/s 758 mmHg 64%
    16:00 +17°C° 0,2 mm 8 m/s 758 mmHg 62%
    17:00 +16°C° 0,1 mm 8 m/s 758 mmHg 65%
    18:00 +15°C° 0,1 mm 7 m/s 758 mmHg 68%
    19:00 +15°C° 0,1 mm 7 m/s 758 mmHg 70%
    20:00 +14°C° 0 mm 7 m/s 758 mmHg 73%
    21:00 +12°C° 0 mm 7 m/s 758 mmHg 76%
    22:00 +12°C° 0 mm 7 m/s 759 mmHg 79%
    23:00 +12°C° 0,1 mm 7 m/s 758 mmHg 78%

    23 Junho, Sábado

    Tempo Temperatura Precipitação Vento Pressão Humidade
    00:00 +11°C° 0,1 mm 7 m/s 758 mmHg 77%
    01:00 +11°C° 0,1 mm 7 m/s 758 mmHg 76%
    02:00 +11°C° 0 mm 8 m/s 758 mmHg 75%
    03:00 +11°C° 0 mm 8 m/s 758 mmHg 74%
    04:00 +11°C° 0 mm 8 m/s 758 mmHg 72%
    05:00 +12°C° 0 mm 9 m/s 758 mmHg 69%
    06:00 +12°C° 0 mm 9 m/s 758 mmHg 67%
    07:00 +13°C° 0 mm 9 m/s 758 mmHg 64%
    08:00 +13°C° 0 mm 9 m/s 759 mmHg 63%
    09:00 +15°C° 0 mm 9 m/s 759 mmHg 63%
    10:00 +15°C° 0 mm 9 m/s 759 mmHg 62%
    11:00 +16°C° 0 mm 9 m/s 759 mmHg 61%
    12:00 +16°C° 0 mm 8 m/s 759 mmHg 61%
    13:00 +17°C° 0 mm 8 m/s 759 mmHg 60%
    14:00 +17°C° 0 mm 8 m/s 759 mmHg 61%
    15:00 +17°C° 0 mm 8 m/s 760 mmHg 62%
    16:00 +17°C° 0 mm 8 m/s 760 mmHg 63%
    17:00 +16°C° 0 mm 8 m/s 760 mmHg 66%
    18:00 +15°C° 0 mm 8 m/s 760 mmHg 69%
    19:00 +15°C° 0 mm 7 m/s 760 mmHg 72%
    20:00 +14°C° 0 mm 7 m/s 760 mmHg 76%
    21:00 +13°C° 0 mm 6 m/s 761 mmHg 81%
    22:00 +13°C° 0 mm 6 m/s 761 mmHg 85%
    23:00 +13°C° 0,1 mm 6 m/s 761 mmHg 87%

    24 Junho, Domingo

    Tempo Temperatura Precipitação Vento Pressão Humidade
    00:00 +13°C° 0,1 mm 5 m/s 761 mmHg 89%
    01:00 +12°C° 0,1 mm 5 m/s 761 mmHg 91%
    02:00 +13°C° 0,2 mm 5 m/s 761 mmHg 91%
    03:00 +13°C° 0,2 mm 5 m/s 761 mmHg 91%
    04:00 +13°C° 0,2 mm 5 m/s 761 mmHg 91%
    05:00 +13°C° 0,2 mm 5 m/s 761 mmHg 88%
    06:00 +14°C° 0,2 mm 5 m/s 761 mmHg 85%
    07:00 +15°C° 0,2 mm 5 m/s 761 mmHg 82%
    08:00 +15°C° 0,1 mm 5 m/s 762 mmHg 78%
    09:00 +16°C° 0,1 mm 5 m/s 762 mmHg 73%
    10:00 +17°C° 0,1 mm 5 m/s 762 mmHg 69%
    11:00 +17°C° 0 mm 5 m/s 762 mmHg 67%
    12:00 +19°C° 0 mm 5 m/s 762 mmHg 65%
    13:00 +19°C° 0 mm 5 m/s 763 mmHg 62%
    14:00 +20°C° 0 mm 5 m/s 763 mmHg 62%
    15:00 +20°C° 0 mm 5 m/s 763 mmHg 62%
    16:00 +20°C° 0 mm 4 m/s 763 mmHg 62%
    17:00 +19°C° 0 mm 4 m/s 763 mmHg 66%
    18:00 +19°C° 0 mm 4 m/s 763 mmHg 70%
    19:00 +18°C° 0 mm 3 m/s 763 mmHg 73%
    20:00 +17°C° 0 mm 3 m/s 763 mmHg 79%
    21:00 +16°C° 0 mm 3 m/s 764 mmHg 84%
    22:00 +14°C° 0 mm 3 m/s 764 mmHg 89%
    23:00 +13°C° 0 mm 3 m/s 764 mmHg 91%

    25 Junho, Segunda-feira

    Tempo Temperatura Precipitação Vento Pressão Humidade
    00:00 +13°C° 0 mm 3 m/s 764 mmHg 92%
    01:00 +13°C° 0 mm 3 m/s 764 mmHg 94%
    02:00 +13°C° 0 mm 3 m/s 764 mmHg 94%
    03:00 +13°C° 0 mm 3 m/s 764 mmHg 94%
    04:00 +13°C° 0 mm 3 m/s 765 mmHg 94%
    05:00 +14°C° 0 mm 3 m/s 765 mmHg 90%
    06:00 +16°C° 0 mm 3 m/s 765 mmHg 86%
    07:00 +17°C° 0 mm 3 m/s 765 mmHg 81%
    08:00 +18°C° 0 mm 3 m/s 765 mmHg 76%
    09:00 +19°C° 0 mm 3 m/s 766 mmHg 71%
    10:00 +20°C° 0 mm 3 m/s 766 mmHg 66%
    11:00 +20°C° 0 mm 3 m/s 766 mmHg 66%
    12:00 +20°C° 0 mm 3 m/s 766 mmHg 65%
    13:00 +21°C° 0 mm 3 m/s 766 mmHg 65%
    14:00 +21°C° 0 mm 3 m/s 766 mmHg 64%
    15:00 +21°C° 0 mm 3 m/s 766 mmHg 64%
    16:00 +21°C° 0 mm 3 m/s 766 mmHg 64%
    17:00 +21°C° 0 mm 2 m/s 766 mmHg 67%
    18:00 +20°C° 0 mm 2 m/s 766 mmHg 70%
    19:00 +20°C° 0 mm 2 m/s 766 mmHg 73%
    20:00 +20°C° 0 mm 1 m/s 766 mmHg 77%
    21:00 +18°C° 0 mm 1 m/s 767 mmHg 81%
    22:00 +16°C° 0 mm 1 m/s 767 mmHg 86%
    23:00 +16°C° 0 mm 1 m/s 767 mmHg 86%
    Mostrar mais